Miscellaneous Local Product
Issued by NWS North Platte, NE

Home | Current Version | Previous Version | Text Only | Print | Product List | Glossary On
Versions: 1 2 3 4 5 6 7 8 9 10 11 12 13 14 15 16 17 18 19 20 21 22 23 24 25 26 27 28 29 30 31 32 33 34 35 36 37 38 39 40 41 42 43 44 45 46 47 48 49 50
000
AXUS43 KLBF 190410
MISLBF


WESTERN AND NORTH CENTRAL NEBRASKA HOURLY WEATHER ROUNDUP
NATIONAL WEATHER SERVICE NORTH PLATTE NE
1100 PM CDT FRI APR 18 2014

***STATIONS NOT REPORTING VARIABLES SUCH AS SKY/WEATHER OR
PRESSURE ARE PROVIDED BY THE NEBRASKA DEPARTMENT OF
ROADS...RAWS...AND APRS NETWORKS...AND ARE NOT UNDER
NATIONAL WEATHER SERVICE QUALITY CONTROL***

...OBSERVATIONS IN AND NEAR THE EASTERN PANHANDLE OF NEBRASKA...

CITY           SKY/WX    TMP DP  RH WIND       PRES   REMARKS
PINE RIDGE     CLOUDY    71  35  26 SW18G24   29.76R
CHADRON        CLOUDY    66  37  34 SW10      29.77R
ALLIANCE       CLOUDY    64  35  34 S14G26    29.81R
SIDNEY         CLOUDY    61  34  36 S17       29.86R
WHITECLAY        N/A     72  36  26 SW14        N/A
CRESCENT LAKE    N/A     62  38  42 S15G23      N/A
LISCO            N/A     66  31  27 E14         N/A
BIG SPRINGS      N/A     63  44  50 S18         N/A
LEWELLEN         N/A     67  39  36 S18         N/A
$$

...OBSERVATIONS IN SOUTHWEST NEBRASKA AND FAR NORTHEAST COLORADO...

CITY           SKY/WX    TMP DP  RH WIND       PRES   REMARKS
WRAY           FAIR      62  42  48 SE21      29.89S
HOLYOKE        FAIR      61  41  48 S17       29.87F
IMPERIAL       MOCLDY    60  42  51 S20G26    29.90S
OGALLALA       MOCLDY    61  42  49 S18       29.86S
NORTH PLATTE   PTCLDY    62  42  47 S25G38    29.88F
MCCOOK         PTCLDY    60  42  51 S21G28    29.94R
LEXINGTON      CLEAR     57  44  60 S18       29.96F
PAXTON           N/A     62  46  55 SE24        N/A
SUTHERLAND       N/A     56  42  58 S21         N/A
MEDICINE CREEK   N/A     60  45  58 CALM        N/A
GOTHENBURG       N/A     60  44  55 SE6G13      N/A
CALLAWAY         N/A     59  45  58 S20         N/A
$$

...OBSERVATIONS IN NORTH CENTRAL NEBRASKA...

CITY           SKY/WX    TMP DP  RH WIND       PRES   REMARKS
VALENTINE      MOCLDY    64  43  46 S25G40    29.75S
THEDFORD       MOCLDY    64  42  45 S30       29.85R
AINSWORTH      MOCLDY    64  43  46 S24G37    29.81R
O`NEILL        MOCLDY    62  39  42 S26G33    29.86F
ORD            PTCLDY    60  42  51 S18G25    29.94S
BROKEN BOW     PTCLDY    58  43  57 S17G26    29.93F
BROWNLEE         N/A     65  40  38 S30         N/A
SPRINGVIEW       N/A     63  44  50 SW16G28     N/A
DUNNING          N/A     63  43  47 S20         N/A
BREWSTER         N/A     63  44  49 S26         N/A
ROSE             N/A     64  47  53 SE26        N/A
NEWPORT          N/A     63  44  48 S26         N/A
COMSTOCK         N/A     63  45  51 S22         N/A
CHAMBERS         N/A     60  40  48 S15G26      N/A
EWING            N/A     60  42  51 SE12G18     N/A
$$

...SOME WEATHER OBSERVATIONS FROM AROUND THE REGION...

CITY           SKY/WX    TMP DP  RH WIND       PRES   REMARKS
DENVER         CLOUDY    63  29  27 S7        29.91R
LARAMIE        CLOUDY    47  30  51 N8        29.99R
CHEYENNE       CLOUDY    57  27  31 VRB5      29.93R
SCOTTSBLUFF    CLOUDY    67  32  27 S8        29.81S
RAPID CITY     CLOUDY    57  39  51 N31G38    29.68R
PIERRE         CLOUDY    68  42  38 S25G39    29.61F
WINNER         FAIR      68  41  37 S33G46    29.71F
SIOUX FALLS    CLOUDY    58  38  47 S25G32    29.94S
OMAHA          CLOUDY    57  40  52 S13       30.09S
GRAND ISLAND   CLEAR     58  42  55 S16       30.01F
KANSAS CITY    PTCLDY    54  41  61 SE8       30.18R
WICHITA        PTCLDY    59  40  49 SE12      30.12R
HAYS           CLEAR     57  41  54 SE15      30.03F
LIBERAL        MOCLDY    55  43  62 SE16      30.05S
GOODLAND       PTCLDY    56  43  61 S25       29.93S
$$



USA.gov is the U.S. government's official web portal to all federal, state and local government web resources and services.